Davenport, IA

7:05 AM CDT on September 26, 2017 (GMT -0500)
Davenport Municipal

Weather History for KDVN - October, 2012

Change the Weather History Date:

Tuesday, October 9, 2012

  Actual Average Record
Temperature  
Mean Temperature 51 °F 54 °F  
Max Temperature 63 °F 66 °F 88 °F (2010)
Min Temperature 38 °F 43 °F 23 °F (2000)
Degree Days  
Heating Degree Days 14 12  
Month to date heating degree days 142 93  
Since 1 July heating degree days 319 228  
Cooling Degree Days 0 1  
Month to date cooling degree days 0 9  
Year to date cooling degree days 1106 783  
Growing Degree Days 2 (Base 50)    
Moisture  
Dew Point 38 °F    
Average Humidity 66    
Maximum Humidity 92    
Minimum Humidity 39    
Precipitation  
Precipitation 0.08 in 0.10 in 0.86 in (1982)
Month to date precipitation 0.15 0.81  
Year to date precipitation 23.97 29.69  
Snow  
Snow 0.00 in - - ()
Month to date snowfall 0.0  
Since 1 July snowfall 0.0  
Since 1 September snowfall 0.0  
Snow Depth 0.00 in    
Sea Level Pressure  
Sea Level Pressure 29.91 in    
Wind  
Wind Speed 14 mph (WSW)    
Max Wind Speed 29 mph    
Max Gust Speed 35 mph    
Visibility 10 miles    
Events Rain    
T = Trace of Precipitation, MM = Missing Value Source: NWS Daily Summary

Daily Weather History Graph

Daily Weather History Graph

Search for Another Location

Airport or City:

Trip Planner

Search our weather history database for the weather conditions in past years. The results will help you decide how hot, cold, wet, or windy it might be!

Date:

Astronomy

Oct. 09, 2012 Rise Set
Actual Time 7:08 AM CDT 6:29 PM CDT
Civil Twilight 6:40 AM CDT 6:57 PM CDT
Nautical Twilight 6:08 AM CDT 7:29 PM CDT
Astronomical Twilight 5:36 AM CDT 8:01 PM CDT
Moon 12:40 AM CDT (10/9) 3:01 PM CDT (10/9)
Length of Visible Light 12h 17m
Length of Day
11h 21m
Last Quarter, 36% of the Moon is Illuminated
Oct 9
Last Quarter
Oct 15
New
Oct 21
First Quarter
Oct 29
Full
Nov 6
Last Quarter

Hourly Weather History & Observations

Time (CDT) Temp. Windchill Dew Point Humidity Pressure Visibility Wind Dir Wind Speed Gust Speed Precip Events Conditions
12:52 AM 51.1 °F - 33.1 °F 50% 29.94 in 10.0 mi SSW 15.0 mph 23.0 mph N/A   Overcast
1:52 AM 51.1 °F - 34.0 °F 52% 29.93 in 10.0 mi SSW 15.0 mph - N/A   Overcast
2:52 AM 51.1 °F - 34.0 °F 52% 29.92 in 10.0 mi SSW 12.7 mph 20.7 mph N/A   Overcast
3:52 AM 50.0 °F - 35.1 °F 57% 29.90 in 10.0 mi SSW 12.7 mph - N/A   Mostly Cloudy
4:52 AM 48.9 °F - 35.1 °F 59% 29.91 in 10.0 mi SSW 10.4 mph - N/A   Overcast
6:52 AM 45.0 °F 39.3 °F 35.1 °F 68% 29.90 in 10.0 mi South 11.5 mph - N/A   Clear
7:52 AM 45.0 °F 38.5 °F 36.0 °F 71% 29.90 in 10.0 mi South 13.8 mph - N/A   Clear
8:52 AM 48.9 °F - 37.0 °F 64% 29.90 in 10.0 mi SSW 13.8 mph - N/A   Clear
9:52 AM 53.1 °F - 37.9 °F 57% 29.89 in 10.0 mi SSW 17.3 mph 24.2 mph N/A   Clear
10:52 AM 55.9 °F - 39.0 °F 53% 29.89 in 10.0 mi SW 17.3 mph 24.2 mph N/A   Clear
11:52 AM 60.1 °F - 37.9 °F 44% 29.88 in 10.0 mi WSW 17.3 mph - N/A   Clear
12:52 PM 60.1 °F - 37.9 °F 44% 29.86 in 10.0 mi SW 15.0 mph 23.0 mph N/A   Clear
1:52 PM 63.0 °F - 39.0 °F 41% 29.84 in 10.0 mi SW 15.0 mph 24.2 mph N/A   Clear
2:52 PM 62.1 °F - 37.9 °F 41% 29.85 in 10.0 mi WSW 16.1 mph - N/A   Clear
3:52 PM 61.0 °F - 37.9 °F 42% 29.86 in 10.0 mi West 17.3 mph 25.3 mph N/A   Clear
4:28 PM 55.4 °F - 41.0 °F 58% 29.86 in 9.0 mi NNW 27.6 mph 33.4 mph N/A   Mostly Cloudy
4:52 PM 52.0 °F - 39.0 °F 61% 29.88 in 10.0 mi NNW 25.3 mph 32.2 mph N/A   Overcast
5:52 PM 48.9 °F - 39.0 °F 69% 29.93 in 10.0 mi NNW 17.3 mph 27.6 mph N/A   Overcast
6:31 PM 44.6 °F 38.4 °F 42.8 °F 93% 29.93 in 6.0 mi NW 12.7 mph - 0.04 in Rain Light Rain
6:52 PM 45.0 °F 39.7 °F 43.0 °F 93% 29.94 in 9.0 mi NW 10.4 mph - 0.05 in Rain Light Rain
7:52 PM 44.1 °F 39.5 °F 41.0 °F 89% 29.96 in 8.0 mi WNW 8.1 mph - 0.03 in Rain Light Rain
9:52 PM 44.1 °F 37.4 °F 41.0 °F 89% 29.97 in 10.0 mi West 13.8 mph - N/A   Mostly Cloudy
10:52 PM 42.1 °F 36.1 °F 39.0 °F 89% 29.99 in 10.0 mi West 10.4 mph - N/A   Clear
11:52 PM 39.0 °F 31.8 °F 37.0 °F 93% 30.00 in 10.0 mi West 11.5 mph - N/A   Clear